Погода в Херсоне

Погода в Херсоне : погода сейчас, прогноз погоды и архив. Всё, что Вы хотите узнать о погоде в Херсоне!

Хотите узнать прогноз погоды в Херсоне? Тогда Вам сюда: Погода в Херсоне

Поиск расширенной информации на нашем сайте:

Другие новости

Новости СМИ2

Главная страница сайта

Новости сайта

02.10.2013

Напоминаем, что на нашем новом сайте вы можете получить высокодетализированные прогнозы погоды по пунктам России, СНГ и мира (включающие важные для авиации метеовеличины, такие как направление и скорость ветра, видимость, явления погоды, количество и форма облачности, нижняя и верхняя граница облачности), а также ознакомиться с разнообразными материалами по авиационной метеорологии и подборкой полезных ссылок на эту тему.

Сайт Метеоцентр.Азия посвящён разработке технологий оптимизации авиаметеорологического обслуживания, включая проектирование и перспективное создание нескольких автоматизированных авиаметеорологических систем:
- система выпуска высокодетальных прогностических карт явлений погоды для нижнего воздушного пространства по России и ближнему зарубежью;
- система верификации прогнозов TAF (выпускаемых синоптиками официальных АМСГ РФ и ближнего зарубежья) и AUTOTAF (выпускаемых сайтом Метеоцентр.Азия) - выявление ошибок, онлайн-сопоставление с фактической погодой METAR, автоматическое внесение коррективов в прогнозы при резком отклонении фактической погоды от прогноза, подсчёт оправдываемости прогнозов по элементам и в целом;
- система обработки, анализа и отображения авиаметеорологической информации для применения провайдерами метеорологической информации.

Рекомендуем: Какие банки выдают кредиты в Херсоне.

Погода в Херсоне - сегодня

Время (UTC), дата Ветер
(°,м/с) 
Видим.   Явления Облачность Т
(°С)
Тd
(°С)
f(%) Тe
(°С)
Pmin
(гПа)
dP
(гПа)
Po
(мм)
O2
(г/м3)
Тmin Tmax R s Состояние
почвы
21 24.05.17 тихо ()   10 км    ясно 
+12.1 +7.8 75 +12  1018.3  759  291           
00 25.05.17 тихо ()   10 км    ясно 
+10.1 +7.6 84 +10  1017.6  -0.7  758  293           
03 25.05.17 тихо ()   4000 м  дымка  4/0 верхняя 
[Ci]
+10.1 +9.3 95 +10  1017.4  -0.2  758  293           
06 25.05.17 150 (ЮВ) 10 км    1/1 600 м 
[Cu hum]
+17.1 +12.2 73 +22  1017.9  0.6  759  285  +8.8         
09 25.05.17 100 (В) 20000 м    8/8 600 м 
[Cu med, cong]
+20.6 +9.8 50 +21  1017.7  -0.1  759  282           
12 25.05.17 160 (Ю) 20000 м    9/9 600 м кучево-дожд. 
[Cb calv]
+21.4 +9.7 47 +22  1017.2  -0.5  758  282           
15 25.05.17 240 (ЮЗ) 20000 м    4/4 2000 м средняя 
[Ac lent]
+20.6 +11.6 56 +24  1016.7  -0.5  758  282           
18 25.05.17 230 (ЮЗ) 10 км    8/6 600 м кучево-дожд., средняя 
[Cb calv|Ac lent]
+17.2 +11.3 68 +21  1017  0.2  758  285    +22.5       
21 25.05.17 240 (ЮЗ) 10 км    3/3 2000 м средняя 
[Ac lent]
+14.2 +11.4 83 +18  1017.9  0.8  759  288           
00 26.05.17 260 (З) 4000 м  дымка  ясно 
+12.8 +11.3 91 +17  1017.4  -0.5  758  290           
03 26.05.17 тихо ()   1000 м  дымка  ясно 
+10.1 +9.5 96 +10  1016.9  -0.5  758  293           
06 26.05.17 тихо ()   10 км  {туман}  3/3 2000 м средняя 
[Ac trans]
+17.7 +12.3 71 +22  1016.7  -0.1  758  284  +9.5         
09 26.05.17 нст () 10 км    8/6 600 м средняя 
[Cu med, cong|Ac trans]
+20.7 +10.6 52 +22  1015.9  -0.7  757  282           
12 26.05.17 170 (Ю) 10 км    9/6 600 м средняя 
[Cu hum|Ac trans]
+21.3 +10.5 50 +23  1014.7  -1.2  756  281           
15 26.05.17 020 (С) 10 км    9/3 600 м средняя 
[Cu hum|Ac trans]
+21.9 +10.8 49 +24  1013.3  -1.4  755  280           
18 26.05.17 220 (ЮЗ) 10 км    4/4 600 м 
[Sc diur, vesp]
+16.2 +10.8 70 +19  1013.8  0.4  756  285    +21.9       
09 27.05.17 230 (ЮЗ) 10 км    9/8 600 м кучево-дожд., верхняя 
[Cb calv|Ci fib]
+21.7 +12.5 56 +26  1013.3  755  280           
12 27.05.17 270 (З) 10 км    9/8 600 м кучево-дожд., средняя 
[Cb calv|Ac trans]
+22.1 +12 53 +26  1013.1  -0.1  755  279           
12 28.05.17 360 (С) 20000 м    4/4 600 м 
[Cu med, cong]
+24.7 +9.5 38 +25  1019.2  0.2  760  279           
18 28.05.17 010 (С) 10 км    3/1 600 м верхняя 
[Sc|Ci fib]
+19.3 +7.5 46 +21  1020  0.9  760  285    +25.1       
21 28.05.17 тихо ()   10 км    ясно 
+15.4 +8 61 +15  1021.2  1.1  761  289           
00 29.05.17 тихо ()   10 км    ясно 
+13.5 +8.3 71 +14  1020.9  -0.3  761  291           
12 29.05.17 260 (З) 20000 м    8/5 600 м кучево-дожд., средняя 
[Cb calv|Ac und]
+26.5 +13.2 44 +32  1017.5  -1.7  758  276           
15 29.05.17 240 (ЮЗ) 20000 м    6/3 600 м средняя 
[Cu hum|Ac und]
+26.5 +13.4 44 +32  1016.1  -1.4  757  276           
18 29.05.17 240 (ЮЗ) 10 км    ясно 
+20.1 +12 60 +24  1015.5  -0.7  757  282    +27.8       
Время (UTC), дата Ветер
(°,м/с) 
Видим.   Явления Облачность Т
(°С)
Тd
(°С)
f(%) Тe
(°С)
Pmin
(гПа)
dP
(гПа)
Po
(мм)
O2
(г/м3)
Тmin Tmax R s Состояние
почвы

Для получения пояснительной информации подведите курсор к названию столбца.

ПОГОДА в Херсоне - архив

Всё, что Вы хотите узнать о погоде в Херсоне - удобно и подробно!

Выберите нужную дату (начиная с 1 января 2015* года) и нажмите кнопку "Найти".
Будут отображены архивные сводки погоды по пункту Херсон, начиная с указанной даты.


Отображать данные в формате CSV (для использования в таблицах Excel)


Внимание! Наш архив погоды предназначен исключительно для личного некоммерческого использования в познавательных целях. Если Вам необходимы официальные справки о состоянии погоды (для производственных, юридических, коммерческих и т.п. целей), обращайтесь в органы Росгидромета.

*Примечание: данная дата относится к архиву по метеостанциям СССР (Россия, СНГ, Балтия).
Архив по метеостанциям Зарубежной Европы и Азии (кроме Китая) хранится 10 дней, по другим регионам земного шара (Китай, Африка, Америка, Австралия, Океания) - 1 день.

Херсон - район местоположения метеостанции


Название, широта, долгота, высота метеостанции:
Херсон 46.6°ш. 32.6°д. 54 м над ур. моря [Украина]

Дополнительная информация

В oтличие oт бoльшинства пoгoдных сайтoв мы публикуем пoдрoбную метеoинфoрмацию в детальнoм прoфессиoнальнoм фoрмате.

Характеристики температуры и влажнoсти вoздуха измеряются на высoте 2 м в тени вдали oт зданий и деревьев.
Скoрoсть ветра измеряется на высoте 10 м (на урoвне рoста челoвека скoрoсть ветра ниже в 1.5-2 раза). Если метеoстанция нахoдится в гoрoде или в лесу, тo скoрoсть ветра занижена на 2-4 м/с пo сравнению с oткрытым местoм. Скoрoсть ветра над акватoриями крупных рек и oзёр, а также на вершинах хoлмoв на 2-5 м/с выше, чем в oбычных услoвиях.
Атмoсфернoе давление в разных тoчках местнoсти мoжет значительнo oтличаться oт давления на метеoстанции, в зависимoсти oт услoвий рельефа (при пoдъёме на 10 м давление пoнижается примернo на 1 мм рт.ст.).